EW3349 Weather Reports


time (UTC)temp
C
wind
direction
speed
KPH
gust
KPH
rain 1hr
cm
rain 24hr
cm
rain mn
cm
humidity
%
barometer
mb
20260504050441 10 357 0.0 8.0 0.00 0.00 0.00 56 1008.2
20260504045455 10 144 1.6 8.0 0.00 0.00 0.00 56 1008.2
20260504044451 11 8 0.0 8.0 0.00 0.00 0.00 55 1008.2
20260504043506 11 153 1.6 9.7 0.00 0.00 0.00 54 1008.3
20260504042441 11 188 1.6 9.7 0.00 0.00 0.00 54 1008.3
20260504041413 11 151 0.0 8.0 0.00 0.00 0.00 53 1008.3
20260504040411 11 120 1.6 9.7 0.00 0.00 0.00 53 1008.3
20260504035356 11 217 1.6 9.7 0.00 0.00 0.00 53 1008.2
20260504034353 11 170 1.6 8.0 0.00 0.00 0.00 53 1008.2
20260504032135 12 190 0.0 9.7 0.00 0.00 0.00 53 1008.2
20260504031124 12 23 1.6 12.9 0.00 0.00 0.00 52 1008.2
20260504023922 12 51 1.6 8.0 0.00 0.00 0.00 53 1008.4
20260504022937 12 205 0.0 8.0 0.00 0.00 0.00 52 1008.6
20260504021925 11 13 0.0 8.0 0.00 0.00 0.00 53 1008.7
20260504020928 11 223 0.0 6.4 0.00 0.00 0.00 54 1008.6
20260504015943 11 30 0.0 6.4 0.00 0.00 0.00 55 1008.8
20260504014933 11 270 0.0 1.6 0.00 0.00 0.00 57 1008.7
20260504013926 11 105 0.0 0.0 0.00 0.00 0.00 57 1008.6
20260504011735 11 139 1.6 12.9 0.00 0.00 0.00 56 1009.0
20260504010751 11 300 1.6 12.9 0.00 0.00 0.00 55 1008.9
20260504005802 11 342 1.6 12.9 0.00 0.00 0.00 56 1008.8
20260504004746 11 154 1.6 17.7 0.00 0.00 0.00 56 1009.0
20260504003716 11 338 6.4 17.7 0.00 0.00 0.00 56 1009.2
20260504002654 11 351 1.6 12.9 0.00 0.00 0.00 56 1009.4
20260504001626 11 356 4.8 17.7 0.00 0.00 0.00 54 1009.2
20260504000554 12 356 6.4 17.7 0.00 0.00 0.00 53 1009.2
20260503235600 12 338 1.6 16.1 0.00 0.00 0.00 53 1009.0
20260503234556 12 16 4.8 20.9 0.00 0.00 0.00 51 1008.9
20260503233547 12 348 9.7 27.4 0.00 0.00 0.00 51 1009.0
20260503232559 12 309 6.4 27.4 0.00 0.00 0.00 49 1008.9
20260503231559 12 335 6.4 17.7 0.00 0.00 0.00 49 1008.8
20260503230533 12 92 8.0 27.4 0.00 0.00 0.00 47 1008.6
20260503225530 12 3 8.0 27.4 0.00 0.00 0.00 45 1008.5
20260503224505 13 356 4.8 17.7 0.00 0.00 0.00 43 1008.6
20260503223521 13 304 4.8 19.3 0.00 0.00 0.00 41 1008.5
20260503222451 13 2 4.8 19.3 0.00 0.00 0.00 42 1008.3
20260503221512 13 344 0.0 9.7 0.00 0.00 0.00 44 1008.5
20260503220514 13 357 1.6 12.9 0.00 0.00 0.00 44 1008.6
20260503214349 13 338 4.8 9.7 0.00 0.00 0.00 42 1008.8
20260503213334 13 252 1.6 8.0 0.00 0.00 0.00 42 1008.5
20260503212346 13 336 4.8 22.5 0.00 0.00 0.00 40 1008.3
20260503211401 14 2 6.4 22.5 0.00 0.00 0.00 38 1008.4
20260503210353 15 11 4.8 14.5 0.00 0.00 0.00 39 1008.5
20260503205405 15 37 4.8 11.3 0.00 0.00 0.00 38 1008.5
20260503204402 15 134 1.6 8.0 0.00 0.00 0.00 38 1008.6
20260503203408 15 303 1.6 14.5 0.00 0.00 0.00 39 1008.7
20260503201244 14 315 1.6 16.1 0.00 0.00 0.00 38 1009.0
20260503200235 13 327 4.8 16.1 0.00 0.00 0.00 40 1009.3
20260503195210 13 25 1.6 14.5 0.00 0.00 0.00 40 1009.4
20260503194158 13 347 1.6 12.9 0.00 0.00 0.00 39 1009.6
20260503193222 13 37 6.4 12.9 0.00 0.00 0.00 40 1009.8
20260503192240 13 353 1.6 12.9 0.00 0.00 0.00 38 1010.0
20260503191257 13 340 4.8 12.9 0.00 0.00 0.00 37 1010.3
20260503185126 13 353 6.4 16.1 0.00 0.00 0.00 39 1010.6
20260503184146 13 178 6.4 16.1 0.00 0.00 0.00 39 1010.6
20260503183119 13 200 6.4 16.1 0.00 0.00 0.00 38 1010.8
20260503182133 12 36 4.8 17.7 0.00 0.00 0.00 39 1010.8
20260503181059 12 340 4.8 17.7 0.00 0.00 0.00 43 1011.1
20260503180040 12 319 4.8 22.5 0.00 0.00 0.00 41 1010.9
20260503175015 13 354 6.4 22.5 0.00 0.00 0.00 41 1010.9
20260503174010 13 4 4.8 16.1 0.00 0.00 0.00 42 1011.1
20260503173018 12 346 4.8 14.5 0.00 0.00 0.00 42 1011.3
20260503170854 12 158 4.8 11.3 0.00 0.00 0.00 47 1011.3
20260503150605 10 169 0.0 6.4 0.00 0.00 0.00 51 1012.7
20260503131129 6 341 1.6 4.8 0.00 0.00 0.00 60 1013.7
20260503130122 6 345 0.0 4.8 0.00 0.00 0.00 61 1013.8
20260503110725 0 115 0.0 0.0 0.00 0.00 0.00 92 1013.6
20260503090203 0 169 0.0 0.0 0.00 0.00 0.00 88 1013.1
20260503081132 0 169 0.0 0.0 0.00 0.00 0.00 87 1013.3
20260503080105 0 169 0.0 0.0 0.00 0.00 0.00 86 1013.3
20260503072115 1 169 0.0 0.0 0.00 0.00 0.00 83 1013.3